Location: B�retswil
(47.3376°N, 8.8534°E)
Time: 23:56:06
(UTC+00:00)

CZ-4 R/B - Pass Details

Date: 03 March 2021
Orbit: 532 x 597 km, 97.7° (Epoch: 20 April)

Event Time Altitude Azimuth Distance (km) Brightness Sun altitude
Rises 18:01:58 0° 169° (S) 2,667 4.7 -9.1°
Reaches altitude 10° 18:04:03 10° 171° (S) 1,784 3.8 -9.5°
Maximum altitude 18:07:54 75° 257° (WSW) 563 1.5 -10.1°
Drops below altitude 10° 18:11:50 10° 344° (NNW) 1,824 4.2 -10.8°
Sets 18:13:59 0° 346° (NNW) 2,731 5.1 -11.2°
